Regional Weather Roundup
Issued by NWS

Home | Current Version | Previous Version | Graphics & Text | Print | Product List | Glossary On
Versions: 1 2 3 4 5 6 7 8 9 10 11 12 13 14 15 16 17 18 19 20 21 22 23 24 25 26 27 28 29 30 31 32 33 34 35 36 37 38 39 40 41 42 43 44 45 46 47 48 49 50
000
ASUS43 KDTX 230710
RWRMI
MICHIGAN HOURLY REGIONAL WEATHER ROUNDUP
NATIONAL WEATHER SERVICE DETROIT/PONTIAC MI
300 AM EDT MON OCT 23 2017

NOTE: "FAIR" INDICATES FEW OR NO CLOUDS BELOW 12,000 FEET WITH NO
SIGNIFICANT WEATHER AND/OR OBSTRUCTION TO VISIBILITY.

MIZ047>049-052>055-059>063-066>070-074>076-081>083-230800-
SOUTHEAST LOWER MICHIGAN

CITY           SKY/WX    TMP DP  RH WIND       PRES   REMARKS
ADRIAN         CLOUDY    62  48  60 S7        29.98F
ALMA           CLOUDY    59  57  91 NW6       29.96S
ANN ARBOR      CLOUDY    62  48  60 CALM      29.98F
BAD AXE        CLOUDY    64  49  58 S9        29.96F
CARO           CLOUDY    66  49  52 S9        29.95S
DETROIT CITY   MOCLDY    63  51  65 S6        29.99F
DETROIT        CLOUDY    63  52  67 S7        30.00F
FLINT          CLOUDY    65  49  56 S7        29.96F
GROSSE ILE     MOCLDY    62  56  79 S8        29.99S
HILLSDALE      CLOUDY    63  48  59 SE7       29.96F
HOWELL         CLOUDY    63  50  62 SE7       29.96F

CITY           SKY/WX    TMP DP  RH WIND       PRES   REMARKS
JACKSON        CLOUDY    66  49  54 S8        29.96F
LAMBERTVILLE   MOCLDY    65  49  55 SE5       29.98F
LANSING        CLOUDY    67  51  56 SW7       29.95F
LAPEER         FAIR      63  49  60 S5        29.98F
MASON          CLOUDY    65  53  64 CALM      29.95F
MONROE         CLOUDY    63  51  63 SE5       29.98F
MT. CLEMENS    CLOUDY    59  58  97 S6        29.98F
PONTIAC        MOCLDY    63  51  65 S6        29.98S
PORT HOPE        N/A     67  49  52 VRB7      29.94S
PORT HURON     MOCLDY    64  52  63 S6        30.00S
TRI CITIES     CLOUDY    65  62  90 SW3       29.95S
MIDLAND        CLOUDY    60  55  85 NW6       29.94S
TROY           CLOUDY    65  51  60 S3        30.01S
SAGINAW HB     CLOUDY    66  52  59 S9        29.94S
$$
MIZ043>046-050>051-056>058-064>065-071>073-077>080-230800-
SOUTHWEST LOWER MICHIGAN

CITY           SKY/WX    TMP DP  RH WIND       PRES   REMARKS
BATTLE CREEK   CLOUDY    65  56  72 SW3       29.95F
BENTON HARBOR  LGT RAIN  57  54  89 CALM      29.94F
BIG RAPIDS     LGT RAIN  52  50  95 CALM      29.96F
COLDWATER      CLOUDY    64  50  60 SE3       29.94F
FREMONT        LGT RAIN  51  51 100 N5        29.97S
HOLLAND        LGT RAIN  54  53  97 NE3       29.95F
GRAND RAPIDS   LGT RAIN  56  55  97 N5        29.95F
IONIA          CLOUDY    59  59  98 NW5       29.94F FOG
KALAMAZOO      CLOUDY    61  57  87 NW3       29.95F
LUDINGTON      RAIN      50  49  97 CALM      29.98F
MARSHALL       MOCLDY    64  53  67 CALM      29.94F
MOUNT PLEASANT LGT RAIN  57  55  92 CALM      29.96S
MUSKEGON       LGT RAIN  53  52  96 N7        29.97F
SOUTH HAVEN    LGT RAIN  56  55  95 NE3       29.95F
$$
MIZ016>042-230800-
NORTHERN LOWER MICHIGAN

CITY           SKY/WX    TMP DP  RH WIND       PRES   REMARKS
ALPENA         LGT RAIN  53  53 100 NW3       29.98R FOG
BEAVER ISLAND  LGT RAIN  52  50  93 CALM      29.98S
BELLAIRE       RAIN      50  49  95 CALM      29.99F
CADILLAC       RAIN      52  49  90 N3        29.96F
CHARLEVOIX     RAIN      51  51 100 CALM      30.01F
FRANKFORT      RAIN      52  52 100 CALM      29.98F
GAYLORD        RAIN      50  48  93 CALM      29.97F FOG
GRAYLING       RAIN      55  51  86 CALM      29.98S
HARBOR SPRINGS LGT RAIN  49  48  95 CALM      29.99S
HOUGHTON LAKE  LGT RAIN  52  51  97 NW3       29.97S FOG
MANISTEE       RAIN      51  50  96 CALM      29.98S
OSCODA         CLOUDY    57  54  88 NE5       29.95S
PELLSTON       LGT RAIN  50  49  96 CALM      30.00R
ROGERS CITY    RAIN      52  51  97 W5        29.99R
TRAVERSE CITY  LGT RAIN  53  51  93 NW5       29.97F
$$
MIZ007>008-015-230800-
EASTERN UPPER MICHIGAN

CITY           SKY/WX    TMP DP  RH WIND       PRES   REMARKS
KINROSS        LGT RAIN  49  49 100 W7        29.98S
MACKINAC ISLAN LGT RAIN  51  51 100 NW5       29.98S
NEWBERRY       PTCLDY    46  45  97 S3        29.96F
S. S. MARIE    LGT RAIN  52  50  93 W7        29.97S
MUNISING         N/A     43  43 100 S5        29.94F
$$
MIZ004>006-011>014-085-230800-
CENTRAL UPPER MICHIGAN

CITY           SKY/WX    TMP DP  RH WIND       PRES   REMARKS
MANISTIQUE     CLOUDY    46  41  81 CALM      29.96F
ESCANABA       CLOUDY    44  44 100 W6        29.97S FOG
MENOMINEE      CLOUDY    45  44  97 CALM      29.99R FOG
SAWYER-GWINN   CLOUDY    41  41  97 S5        29.96R
$$
MIZ001>003-009>011-084-230800-
WESTERN UPPER MICHIGAN

CITY           SKY/WX    TMP DP  RH WIND       PRES   REMARKS
IRON MOUNTAIN  FOG       37  35  92 CALM      29.95S VSB 1/4
HOUGHTON       CLEAR     43  38  82 S6        29.88F
COPPER HARBOR    N/A     46  39  76 SW10      29.88F
IRONWOOD       MOCLDY    46  39  76 S6        29.89S
$$

ABBREVIATIONS USED IN REMARKS
   TC - TEMPERATURE IN CELSIUS
  WCI - WIND CHILL INDEX
   HX - HEAT INDEX
  VSB - VISIBILITY




USA.gov is the U.S. government's official web portal to all federal, state and local government web resources and services.